Regional Weather Roundup
Issued by NWS

Home | Current Version | Previous Version | Text Only | Print | Product List | Glossary On
Versions: 1 2 3 4 5 6 7 8 9 10 11 12 13 14 15 16 17 18 19 20 21 22 23 24 25 26 27 28 29 30 31 32 33 34 35 36 37 38 39 40 41 42 43 44 45 46 47 48 49 50
000
ASUS44 KJAN 161110
RWRMS

MISSISSIPPI HOURLY WEATHER ROUNDUP
NATIONAL WEATHER SERVICE JACKSON MS
500 AM CST MON JAN 16 2017

NOTE: "FAIR: INDICATES FEW OR NO CLOUDS BELOW 12,000 FEET WITH NO
SIGNIFICANT WEATHER AND/OR OBSTRUCTIONS TO VISIBILITY.

MSZ001>002-007>008-010>013-018>021-025>028-034>036-161200-
NORTHWEST MISSISSIPPI

CITY           SKY/WX    TMP DP  RH WIND       PRES   REMARKS
BATESVILLE     FAIR      47  46  97 CALM      30.12F FOG
CLARKSDALE     PTCLDY    52  52 100 SE3       30.10S
CLEVELAND      FAIR      56  56 100 SE8       30.08S
GREENWOOD      CLOUDY    60  55  83 S6        30.10S
GREENVILLE     CLOUDY    58  54  86 SE9       30.08S
OXFORD         FAIR      54  50  87 SE7       30.15R
TUNICA         PTSUNNY   50  50 100 E5        30.11S
WINONA         FAIR      58  56  96 SE3       30.12S
$$

MSZ003>006-009-014>017-022>024-029>033-037>039-161200-
NORTHEAST MISSISSIPPI

CITY           SKY/WX    TMP DP  RH WIND       PRES   REMARKS
COLUMBUS AFB   NOT AVBL
CORINTH        CLOUDY    48  48 100 CALM      30.16R FOG
GOLDN TRIANGLE CLOUDY    57  48  72 SE7       30.12R
STARKVILLE     FAIR      54  52  94 CALM      30.16R
TUPELO         MOCLDY    55  50  83 E5        30.15S
$$

MSZ040-058-161200-
CENTRAL MISSISSIPPI

CITY           SKY/WX    TMP DP  RH WIND       PRES   REMARKS
JACKSON INTL   CLOUDY    63  61  93 S9        30.10F
JACKSON HAWKNS CLOUDY    62  60  93 SE8       30.10F
MADISON        CLOUDY    61  59  94 SE5       30.10S
MERIDIAN KEY   PTCLDY    63  60  90 SE8       30.14F
MERIDIAN NAS   MOCLDY    59  53  80 SE5       30.15F
RAYMOND        DRIZZLE   64  63  94 SE6G17    30.08F
VICKSBURG VKS  CLOUDY    63  61  94 SE5       30.08R
$$

MSZ059>079-161200-
SOUTH MISSISSIPPI

CITY           SKY/WX    TMP DP  RH WIND       PRES   REMARKS
BROOKHAVEN     CLOUDY    64  63  94 SE7       30.10F
HATTIESBURG    FOG       60  60 100 SE3       30.13F VSB 1/2
LAUREL         FAIR      56  56 100 E5        30.13F
MCCOMB         CLOUDY    66  63  90 S13       30.08F
NATCHEZ        PTCLDY    63  57  82 SE9       30.07R
PINE BELT      CLOUDY    61  57  88 SE6       30.15S
$$

MSZ080>082-161200-
COASTAL MISSISSIPPI

CITY           SKY/WX    TMP DP  RH WIND       PRES   REMARKS
BILOXI         PTCLDY    66  64  94 SE6       30.13F
PASCAGOULA     PTCLDY    64  60  87 SE6       30.15S
GULFPORT       MOCLDY    64  61  90 SE6       30.13F
$$

LAZ007>009-015>016-023>026-161200-
NORTHEAST LOUISIANA

CITY           SKY/WX    TMP DP  RH WIND       PRES   REMARKS
BASTROP        CLOUDY    61  61  99 CALM      30.07R
TALLULAH/VBURG CLOUDY    62  60  93 SE6       30.09R
VIDALIA        FAIR      61  59  93 SE3       30.10R
$$



USA.gov is the U.S. government's official web portal to all federal, state and local government web resources and services.